Dewpoint
14 15 15 13 13 16 18 16 15 15 15 15 13 12 13 16 15 17 16 12 11 15 14 14 13 13 13 12 12 11 12 12 12 11 8 8 8 7 8 8 5 3 4 7 8 8 8 7 7
13 13 13 12 15 17 17 15 15 14 14 15 13 13 14 16 18 17 16 12 11 15 15 14 13 13 13 13 12 12 12 13 13 13 11 7 8 8 8 6 4 3 5 7 7 8 8 10 9
15 13 14 15 16 17 17 15 14 15 15 14 14 15 15 17 17 16 14 12 11 15 16 14 13 13 13 13 13 13 13 13 13 13 13 9 8 7 6 4 3 4 5 6 8 10 10 10 11
14 13 14 15 16 15 16 15 15 15 14 14 15 15 17 18 17 16 14 12 13 14 15 14 13 12 12 13 13 13 13 13 13 13 12 11 11 8 5 4 5 5 5 6 9 11 11 10 12
14 14 16 15 15 15 15 14 15 14 14 14 14 15 17 16 15 14 14 12 11 14 15 16 14 13 12 11 10 12 13 13 13 13 13 12 11 8 6 5 5 4 4 7 9 10 11 11 10
13 14 16 16 15 14 14 14 14 14 14 14 15 15 17 16 14 14 14 13 9 11 16 16 15 12 10 8 6 8 12 13 13 13 10 12 9 7 6 5 6 10 12 12 10 10 11 12 10
11 14 14 14 15 15 13 13 14 14 14 14 15 15 17 17 16 14 15 14 11 12 15 16 15 8 7 6 5 5 7 10 12 12 11 8 7 6 6 8 11 12 12 12 12 11 11 12 11
13 12 12 12 14 13 13 13 13 14 14 15 14 15 17 17 16 15 15 15 14 10 14 14 10 7 8 6 5 6 13 11 8 9 8 10 8 8 8 11 12 12 12 12 12 12 10 12 12
12 13 12 11 12 12 13 13 13 14 14 14 14 14 15 15 17 16 15 15 14 12 11 9 6 6 8 12 12 11 9 12 12 13 12 11 11 10 12 12 12 12 12 12 12 11 11 10 11
11 13 10 8 9 11 14 13 13 14 14 15 15 15 16 16 17 16 16 14 15 13 13 13 11 10 10 14 13 11 12 12 13 12 11 12 13 13 13 12 12 12 12 12 12 12 10 11 12
12 11 9 9 9 10 13 13 13 13 15 14 15 14 16 16 16 17 16 15 15 14 12 12 12 11 11 13 12 14 14 13 13 13 14 15 14 13 12 13 12 13 13 11 11 11 12 12 13
9 9 10 9 9 11 10 12 13 13 13 14 14 13 16 16 16 17 16 15 16 15 13 13 13 11 10 12 13 13 13 14 14 14 14 14 14 13 12 13 13 13 13 10 8 9 11 12 12
7 7 7 7 7 8 9 11 13 14 15 14 16 15 17 17 17 17 17 16 16 15 13 13 14 13 13 13 13 13 13 13 13 13 13 14 14 13 13 13 13 13 10 12 14 12 12 13 14
4 3 3 5 6 7 9 13 12 14 15 17 17 17 17 17 17 16 15 15 15 14 14 14 14 13 14 13 13 13 12 12 14 15 14 13 13 13 13 13 13 14 14 14 13 12 13 14 14
2 5 5 5 7 7 10 13 15 15 16 17 17 17 17 18 17 17 15 15 15 15 14 14 14 13 13 14 13 13 12 13 14 14 13 13 13 13 13 13 13 15 14 12 13 13 13 14 14
5 6 6 4 8 8 8 13 15 16 16 16 16 17 17 17 16 16 15 15 15 15 15 14 14 14 14 14 13 12 12 14 15 15 13 13 13 14 13 13 14 14 14 14 14 14 14 14 13
2 3 3 1 8 8 9 15 15 15 15 16 15 15 16 17 16 15 15 15 14 15 15 15 15 14 14 14 14 13 13 15 15 15 13 13 14 13 13 13 14 13 13 13 13 14 15 14 14
3 0 -0 1 5 10 14 16 15 15 15 15 15 14 15 15 14 15 14 15 14 14 14 14 15 15 15 15 15 15 16 15 15 15 14 13 13 13 13 13 13 13 13 13 13 14 14 14 14
-0 1 1 1 7 9 10 12 12 13 14 14 13 15 14 14 13 13 13 14 14 14 14 14 14 15 15 15 15 15 15 15 15 15 15 14 14 14 13 13 13 14 13 13 14 14 13 13 14
-1 -0 0 5 7 8 10 11 13 13 14 14 14 15 15 15 15 13 14 14 13 14 14 14 15 15 15 15 14 14 14 15 15 15 15 15 15 15 14 13 13 13 14 13 14 14 13 13 14
-2 -1 0 2 8 8 9 11 11 12 14 14 14 14 15 15 14 14 13 13 12 12 13 13 14 14 14 14 14 14 14 15 15 15 15 15 15 14 14 13 13 13 13 13 14 13 12 13 13
0 -0 -1 4 7 8 8 13 12 11 12 12 13 13 14 14 12 14 13 13 13 13 13 13 14 14 15 14 14 15 15 14 15 15 15 15 15 15 15 14 13 13 13 13 13 14 12 13 13
-1 4 3 5 7 9 10 10 11 11 12 13 12 13 12 13 12 14 13 13 13 13 13 13 14 14 14 14 15 15 15 15 15 15 15 14 14 14 14 14 13 13 13 13 14 13 14 14 14
-3 2 4 5 6 8 11 11 12 12 13 13 12 12 11 12 11 12 13 13 13 13 14 14 14 14 14 14 14 14 15 15 16 15 15 14 14 14 13 13 13 13 13 13 14 14 13 14 13
-0 2 3 5 6 6 11 13 10 10 12 13 12 11 11 11 12 12 13 13 13 13 13 13 13 14 14 14 15 15 15 15 16 15 15 14 14 14 14 13 13 13 13 12 14 14 12 13 13
-1 -2 1 6 7 8 12 12 11 9 9 12 13 11 11 11 11 11 12 12 12 12 13 9 12 12 13 14 14 15 15 15 15 15 14 14 14 14 14 13 13 13 13 12 13 14 13 13 12
0 -0 0 8 10 10 10 11 10 11 10 14 13 12 12 11 11 10 10 10 11 12 12 7 12 12 12 13 14 14 14 15 15 14 14 13 14 14 14 14 13 12 13 11 12 12 12 12 13
-1 1 2 6 8 9 10 12 11 11 13 15 15 14 15 15 14 12 12 12 13 12 13 12 12 12 12 13 14 15 15 15 15 16 14 13 13 14 14 14 14 13 12 10 10 10 12 12 13
1 1 3 5 7 5 8 7 10 11 14 15 15 16 16 16 15 15 14 14 15 14 13 13 13 14 14 15 15 15 14 14 14 15 15 14 13 13 14 14 13 13 12 11 12 13 12 12 14
2 1 2 3 7 10 10 7 12 12 14 15 16 16 16 16 16 15 13 12 10 12 15 15 15 15 14 14 15 15 14 13 10 9 15 14 15 14 13 14 14 12 12 12 12 12 12 12 12
Wind_Speed
2 5 2 3 1 3 3 3 3 2 2 2 4 1 1 4 2 2 13 26 29 31 30 26 24 25 26 25 22 22 21 21 20 18 17 16 15 13 11 10 8 7 7 7 8 7 6 6 6
6 5 1 1 2 3 2 1 1 4 3 3 4 1 2 3 3 9 24 25 29 30 29 28 25 25 24 23 21 21 19 19 18 18 16 15 13 11 9 8 7 6 5 5 6 5 5 4 5
6 4 1 2 3 2 4 5 5 5 1 2 2 2 3 3 3 17 25 30 29 29 27 29 26 24 23 21 20 20 18 17 18 17 15 14 11 10 8 7 4 3 2 2 2 2 2 3 4
8 2 3 4 10 1 2 4 4 3 3 2 2 4 3 3 6 14 28 31 28 29 27 28 25 23 21 20 18 18 17 17 17 16 14 13 10 8 6 4 3 2 2 2 2 2 2 2 4
5 2 3 4 4 1 4 3 5 3 1 1 3 4 4 4 12 21 26 28 26 27 26 25 26 24 21 19 18 18 18 17 17 16 13 13 10 9 8 6 4 4 5 4 4 4 3 4 7
1 0 3 4 5 3 7 8 4 5 4 4 3 8 4 8 14 24 26 27 24 25 24 26 23 22 20 19 18 18 19 20 18 16 15 11 11 9 6 6 5 5 6 6 6 6 4 5 6
3 2 2 2 5 7 6 9 5 6 5 5 9 6 4 12 14 22 26 25 24 23 23 24 23 20 19 17 17 16 16 16 15 15 13 14 11 10 6 7 6 5 6 6 6 5 4 6 7
2 1 2 3 5 2 9 14 7 11 5 7 8 4 6 18 18 22 24 23 23 23 22 22 23 21 18 17 17 16 15 15 15 13 14 12 8 7 9 8 8 8 8 6 6 5 5 6 6
1 1 2 2 2 3 12 10 8 5 6 5 5 2 7 22 23 24 25 24 24 24 22 22 23 22 20 18 17 15 16 15 17 16 18 14 14 14 12 13 9 11 10 7 5 5 6 5 6
1 0 2 3 3 1 7 8 14 8 9 7 5 5 11 23 25 27 27 28 25 26 25 22 23 22 21 19 17 15 14 16 16 12 17 16 12 12 11 10 12 12 10 8 6 5 6 6 6
2 2 3 3 9 5 6 7 9 9 8 15 15 17 21 26 27 22 23 25 25 25 26 24 23 22 22 20 18 17 10 11 10 11 11 12 12 12 9 9 10 10 8 7 7 7 7 6 5
3 8 6 4 3 4 5 6 6 16 1 3 14 16 24 28 27 23 22 22 21 22 25 24 22 22 22 19 18 12 12 11 10 10 11 13 14 14 10 7 4 5 8 7 7 7 7 7 7
3 5 4 7 10 9 5 2 1 2 10 4 16 21 24 24 23 19 16 16 19 21 22 23 23 22 20 19 15 14 12 11 10 11 13 14 15 15 11 7 5 4 5 6 6 6 7 7 5
4 10 12 6 5 1 5 7 3 7 3 13 20 20 21 23 20 20 20 19 17 20 19 18 21 20 20 19 16 14 13 9 10 11 11 11 12 8 10 6 5 5 5 7 6 7 6 6 6
6 6 4 6 8 2 10 4 6 5 8 13 14 16 19 18 18 17 14 14 15 14 16 14 18 19 20 19 17 15 16 12 11 10 9 10 10 10 10 8 7 6 5 4 5 7 6 3 4
3 2 4 5 11 4 4 2 5 5 10 11 8 7 13 16 18 16 15 12 12 16 16 16 16 17 18 18 17 16 15 14 12 10 10 10 12 12 12 11 9 6 5 6 5 6 7 5 7
6 4 5 5 10 2 4 2 6 3 6 10 3 4 12 14 16 15 16 9 12 12 15 16 17 16 14 14 15 15 15 14 12 11 13 11 11 13 12 12 10 7 4 6 6 2 3 3 5
3 4 5 6 6 10 11 7 3 4 6 4 0 4 7 12 9 14 12 9 10 11 13 14 15 16 14 14 13 14 14 14 13 12 13 14 13 13 14 13 12 10 6 5 5 6 2 5 4
3 4 7 5 3 4 7 6 6 3 5 5 3 2 12 16 4 12 14 9 10 12 11 10 11 12 14 15 13 14 15 14 14 13 12 15 14 14 14 14 16 13 9 6 4 6 5 5 4
5 5 5 1 3 2 3 9 5 7 4 5 5 6 14 11 8 13 10 7 8 9 10 11 10 10 11 12 10 9 10 11 12 13 12 14 15 16 15 16 17 15 12 7 5 5 5 6 5
8 8 5 3 5 7 3 4 6 3 3 3 5 4 8 11 11 11 9 9 8 9 8 6 9 10 10 10 10 11 12 14 12 10 10 12 15 15 14 14 17 16 14 8 6 5 4 3 4
7 4 6 6 7 2 4 3 2 3 2 2 6 6 11 12 13 12 10 10 9 8 7 6 6 8 11 11 13 15 13 12 10 7 7 9 11 14 14 14 17 17 14 10 8 6 5 4 2
3 5 4 4 4 4 4 2 2 2 2 4 3 9 10 12 14 13 10 11 10 8 7 6 8 9 11 13 15 14 16 13 11 9 9 9 10 12 13 13 17 19 17 12 10 10 8 5 4
4 1 5 3 2 4 2 3 3 3 2 1 4 9 12 12 13 12 10 10 8 6 6 7 9 10 13 14 14 14 15 12 13 12 11 11 12 12 14 15 17 20 19 15 13 12 11 7 6
7 6 2 3 4 0 1 3 1 3 6 4 2 11 12 13 12 12 12 9 6 6 7 7 9 11 12 14 14 14 15 14 14 12 13 13 13 14 14 15 18 21 21 18 15 15 14 11 10
7 5 3 3 2 1 2 3 3 7 4 6 6 13 14 12 13 12 10 7 6 6 1 2 1 4 10 12 13 15 16 14 14 14 14 14 14 14 14 16 17 21 23 21 18 16 16 14 12
5 5 2 6 1 3 0 3 6 8 5 3 10 16 12 10 9 8 8 8 9 9 6 2 3 6 6 10 10 13 13 10 9 10 13 15 15 13 13 16 18 19 24 25 23 21 18 18 15
3 9 4 1 3 3 2 3 5 10 10 8 10 14 14 10 8 8 6 3 4 8 7 8 11 13 11 10 10 11 11 11 11 13 13 13 14 14 14 15 17 19 22 23 24 24 21 20 19
5 5 4 4 2 3 2 1 5 15 16 12 13 12 14 12 10 8 7 6 7 2 1 2 3 4 5 5 7 7 9 12 17 16 14 14 13 14 15 16 16 18 22 23 24 24 24 23 21
3 6 9 6 5 1 2 1 1 12 16 19 12 16 13 15 14 14 16 15 17 19 18 16 13 10 10 8 4 6 9 15 20 17 17 14 13 14 16 17 18 19 19 23 25 25 25 25 25
Wind_Direction
295 330 23 55 175 54 60 71 316 148 71 357 164 204 310 55 16 42 154 160 164 158 157 157 154 150 152 156 154 156 156 155 150 148 152 155 153 146 141 134 124 115 112 113 105 102 101 104 112
38 17 109 106 75 105 61 272 213 316 338 85 141 300 25 70 48 144 150 160 165 160 159 162 159 156 155 158 159 161 164 165 165 164 162 162 157 153 152 144 133 124 124 112 103 92 92 95 102
2 28 146 83 85 113 130 219 255 288 280 286 148 59 19 45 86 149 159 159 163 162 161 165 165 163 159 160 161 166 169 170 169 169 170 167 173 164 162 156 149 139 152 142 129 118 104 109 109
355 25 63 90 102 177 236 218 215 222 187 328 178 87 69 19 158 161 158 159 161 164 164 167 170 171 170 169 169 172 174 173 176 177 177 180 187 178 181 188 187 199 225 241 244 199 178 162 124
352 18 89 92 79 118 267 199 179 166 98 124 171 120 76 59 149 152 159 161 165 164 165 170 175 177 178 180 180 181 184 184 186 189 192 193 194 192 201 210 228 245 258 257 249 249 222 157 189
317 275 54 71 94 201 238 243 270 244 225 154 139 127 103 122 154 155 162 165 168 166 165 172 180 180 182 182 180 184 188 192 194 191 202 199 200 206 212 232 242 257 264 264 252 249 231 193 212
8 27 73 124 152 183 225 198 223 231 220 197 143 127 138 155 165 161 164 169 170 169 167 171 179 183 184 184 185 185 188 188 196 201 189 194 202 215 218 246 248 261 272 266 252 242 227 215 206
111 99 138 206 195 141 178 169 201 204 205 133 152 160 169 179 167 171 167 169 172 175 172 177 184 187 192 195 199 192 187 183 189 198 200 204 202 227 229 247 263 272 273 268 241 244 227 216 224
131 38 111 225 217 103 151 187 184 177 156 145 177 151 184 169 168 171 169 174 177 181 182 183 189 191 192 196 198 196 194 194 213 209 193 205 223 224 241 248 255 270 273 265 241 237 239 225 238
194 83 210 256 259 54 171 184 175 168 180 195 175 172 168 171 170 173 174 179 180 183 188 189 193 191 191 197 201 195 197 207 216 226 213 228 228 226 245 258 261 263 255 249 247 249 261 236 251
184 241 171 302 250 195 178 196 194 190 197 214 194 185 172 172 170 175 178 184 183 184 190 193 195 194 195 200 199 199 207 214 216 226 239 225 225 239 257 271 274 247 243 253 254 253 256 258 255
275 260 242 255 230 207 195 193 206 213 5 310 218 186 169 173 176 179 181 182 183 189 193 193 198 199 198 201 205 197 206 217 226 236 236 234 233 239 248 262 282 237 238 261 256 246 253 255 259
215 289 305 249 275 242 226 95 129 326 297 270 162 166 170 175 174 179 183 186 187 192 197 202 201 203 204 205 209 203 205 223 238 243 241 238 241 237 232 243 273 257 241 254 262 248 249 253 242
287 288 287 313 350 218 129 52 134 3 29 135 154 159 171 177 178 179 189 191 192 195 197 199 206 206 210 212 213 212 217 234 245 248 243 236 231 229 207 226 250 247 258 269 250 241 243 262 253
308 311 347 41 359 25 145 61 44 35 118 130 146 160 176 184 181 191 192 200 211 202 199 196 202 207 214 216 218 220 221 236 242 247 234 222 219 223 225 229 232 243 261 239 245 236 247 254 273
12 30 7 37 358 31 231 2 39 72 113 116 119 167 187 189 195 196 191 208 217 212 210 206 206 210 213 220 224 232 231 245 233 237 235 225 224 229 228 223 221 237 248 247 258 259 253 263 304
27 345 349 349 31 321 32 118 50 96 124 133 93 212 206 185 196 188 191 199 218 221 216 212 214 218 220 225 229 235 240 237 231 234 237 229 227 224 228 222 220 222 249 243 256 293 299 274 303
1 339 340 322 4 51 81 85 112 111 123 145 282 308 203 180 158 206 195 213 210 214 211 212 217 222 222 229 233 237 236 234 235 240 237 233 234 234 233 233 222 231 235 237 258 295 302 316 314
291 287 318 316 43 81 71 70 28 24 105 124 96 151 175 179 211 212 198 210 207 210 209 211 217 223 222 229 238 242 241 239 243 245 242 235 235 236 236 231 225 227 231 247 254 303 280 299 318
255 302 294 244 1 79 71 59 48 26 53 90 121 150 167 193 200 186 192 208 191 197 203 210 218 228 231 237 242 251 245 249 254 251 246 242 235 241 234 230 233 229 231 246 270 294 312 296 286
279 269 243 258 112 77 339 78 25 17 348 117 128 151 181 194 199 195 193 180 185 190 196 213 213 220 225 229 234 248 249 253 258 264 267 255 243 240 238 241 226 228 230 242 262 270 298 291 258
294 305 254 183 190 164 342 127 335 337 326 1 192 183 191 193 189 201 199 194 196 210 212 218 238 234 233 240 252 259 260 266 267 281 293 269 249 242 245 244 220 219 226 231 249 254 252 285 313
299 33 120 182 140 166 37 184 201 293 317 114 154 183 185 190 197 204 202 202 207 214 224 241 252 255 255 255 260 265 275 279 278 286 290 273 254 253 244 227 219 215 221 230 240 241 243 253 253
243 178 92 99 141 221 51 294 203 230 255 109 154 172 175 181 191 202 209 211 213 221 235 252 261 268 266 266 269 274 283 285 293 290 288 272 258 258 242 232 224 220 220 225 234 236 243 243 249
186 185 184 196 210 304 142 244 17 208 254 262 164 164 170 183 195 210 210 209 215 243 245 255 260 268 271 269 277 285 290 285 281 276 271 260 257 258 253 239 230 223 220 223 232 237 239 241 243
183 220 206 240 244 40 168 227 139 190 281 281 217 160 160 179 194 215 223 224 241 257 57 27 132 270 262 276 284 292 290 278 275 275 270 257 252 256 252 244 238 233 225 226 232 239 242 250 251
141 203 80 111 88 253 61 222 254 223 249 239 169 146 150 162 177 198 230 235 243 248 222 190 50 340 318 267 279 292 307 297 293 283 274 266 255 255 258 249 243 234 228 232 237 243 248 248 253
266 134 171 165 222 256 208 257 197 181 194 193 180 147 147 151 158 172 192 206 259 275 257 243 257 256 265 256 269 285 286 296 297 290 279 269 265 259 259 257 254 241 236 237 242 245 249 250 253
148 187 73 112 307 271 281 244 197 183 183 190 162 149 144 140 142 144 136 114 98 79 337 307 296 294 302 285 265 275 262 271 280 283 285 280 262 255 254 255 251 250 243 240 245 250 249 256 257
238 221 186 223 196 175 309 284 99 154 162 169 162 140 133 126 124 116 109 105 102 98 93 86 79 74 67 56 4 288 268 269 274 274 275 276 275 272 262 258 254 249 245 240 245 248 249 253 256
Height
1519 1518 1517 1517 1522 1519 1531 1530 1528 1524 1523 1524 1524 1525 1525 1527 1527 1533 1533 1537 1541 1544 1548 1553 1557 1559 1561 1565 1567 1570 1572 1574 1575 1578 1580 1582 1583 1584 1585 1585 1586 1587 1588 1588 1589 1589 1590 1590 1591
1519 1518 1518 1517 1522 1529 1535 1527 1526 1523 1523 1524 1525 1526 1525 1528 1530 1529 1532 1537 1542 1545 1549 1553 1557 1560 1562 1565 1569 1571 1572 1574 1577 1579 1581 1583 1584 1585 1586 1586 1587 1588 1589 1590 1590 1591 1591 1592 1593
1519 1518 1520 1520 1526 1534 1532 1525 1522 1525 1525 1525 1525 1526 1527 1530 1530 1532 1532 1536 1542 1547 1551 1554 1558 1562 1563 1567 1569 1572 1574 1577 1578 1580 1582 1584 1585 1586 1587 1588 1588 1589 1590 1591 1592 1592 1593 1594 1595
1518 1519 1521 1522 1527 1529 1527 1523 1525 1526 1525 1525 1526 1527 1531 1530 1532 1533 1535 1538 1543 1547 1552 1556 1560 1563 1566 1568 1571 1573 1575 1577 1580 1581 1583 1585 1586 1588 1588 1589 1590 1590 1591 1592 1592 1593 1593 1595 1595
1518 1517 1520 1527 1531 1529 1524 1523 1527 1524 1524 1526 1527 1529 1532 1532 1532 1535 1538 1541 1545 1548 1553 1557 1560 1564 1567 1569 1572 1574 1575 1578 1580 1583 1583 1585 1587 1588 1589 1590 1591 1591 1591 1592 1592 1593 1594 1594 1592
1519 1518 1521 1529 1530 1528 1524 1523 1524 1523 1523 1525 1527 1529 1534 1534 1536 1536 1540 1544 1547 1549 1554 1558 1561 1564 1567 1570 1572 1574 1577 1578 1580 1583 1585 1586 1587 1589 1590 1591 1591 1592 1591 1592 1592 1592 1593 1592 1593
1519 1519 1525 1525 1526 1527 1522 1522 1524 1522 1522 1524 1526 1529 1534 1535 1537 1538 1541 1546 1549 1552 1555 1559 1562 1565 1568 1571 1573 1575 1576 1579 1580 1583 1586 1587 1588 1589 1590 1591 1591 1592 1591 1591 1592 1592 1593 1594 1593
1521 1522 1524 1523 1522 1521 1517 1519 1519 1520 1522 1523 1525 1528 1533 1533 1536 1539 1543 1547 1551 1553 1556 1559 1562 1566 1569 1571 1573 1575 1577 1579 1580 1582 1585 1587 1588 1590 1590 1590 1591 1591 1590 1591 1591 1591 1592 1593 1593
1520 1522 1526 1519 1519 1515 1517 1519 1520 1521 1523 1524 1525 1527 1529 1530 1534 1539 1543 1547 1550 1553 1556 1558 1562 1565 1569 1571 1573 1576 1578 1580 1580 1580 1582 1585 1587 1589 1590 1590 1590 1591 1590 1591 1590 1591 1592 1592 1591
1521 1524 1520 1514 1512 1512 1515 1517 1518 1520 1522 1524 1525 1527 1529 1530 1533 1536 1539 1543 1548 1551 1555 1558 1562 1564 1568 1571 1573 1577 1578 1577 1580 1581 1583 1584 1585 1588 1589 1590 1589 1589 1588 1589 1589 1589 1590 1590 1590
1521 1520 1517 1514 1512 1511 1513 1515 1516 1516 1519 1518 1520 1522 1527 1530 1533 1537 1540 1543 1547 1551 1554 1558 1563 1566 1569 1571 1574 1576 1576 1578 1579 1582 1582 1582 1584 1587 1587 1588 1587 1587 1587 1588 1588 1589 1590 1589 1588
1520 1514 1515 1513 1510 1512 1510 1510 1511 1513 1516 1517 1517 1522 1526 1530 1533 1537 1541 1544 1548 1552 1555 1558 1562 1566 1568 1571 1573 1576 1577 1578 1578 1580 1580 1581 1583 1584 1586 1586 1586 1585 1587 1587 1587 1587 1588 1588 1588
1518 1514 1512 1509 1509 1509 1512 1512 1514 1516 1515 1516 1518 1522 1525 1531 1533 1538 1543 1547 1549 1551 1554 1557 1560 1564 1567 1569 1572 1574 1576 1577 1578 1578 1579 1580 1581 1581 1584 1585 1585 1586 1586 1586 1586 1587 1587 1587 1587
1516 1513 1509 1508 1509 1510 1512 1515 1514 1518 1517 1518 1520 1524 1527 1531 1534 1537 1541 1545 1548 1551 1553 1557 1560 1563 1565 1568 1570 1573 1574 1576 1577 1577 1578 1579 1579 1581 1580 1584 1585 1586 1586 1586 1586 1586 1586 1586 1585
1514 1511 1508 1509 1509 1509 1511 1516 1522 1523 1522 1524 1526 1526 1528 1533 1536 1538 1541 1545 1548 1550 1554 1556 1559 1562 1564 1567 1569 1572 1573 1575 1575 1576 1576 1576 1578 1580 1580 1583 1584 1585 1585 1586 1586 1586 1585 1585 1584
1514 1513 1516 1511 1510 1510 1510 1522 1524 1526 1525 1528 1530 1530 1532 1534 1536 1538 1542 1545 1547 1550 1553 1556 1559 1561 1563 1565 1568 1570 1572 1573 1574 1574 1575 1576 1578 1578 1580 1582 1584 1585 1585 1585 1586 1585 1585 1584 1583
1518 1524 1522 1514 1511 1510 1510 1525 1527 1527 1528 1530 1531 1531 1531 1533 1534 1537 1540 1544 1546 1549 1552 1554 1558 1560 1562 1564 1566 1568 1570 1571 1572 1571 1573 1575 1576 1578 1578 1581 1583 1584 1584 1585 1585 1585 1584 1584 1583
1531 1526 1521 1522 1513 1513 1517 1525 1526 1528 1529 1530 1531 1528 1527 1530 1536 1536 1540 1543 1545 1548 1550 1553 1556 1559 1561 1563 1564 1566 1567 1568 1568 1570 1571 1573 1574 1575 1577 1578 1581 1583 1584 1584 1584 1584 1583 1582 1582
1524 1526 1526 1517 1516 1517 1524 1525 1524 1526 1528 1530 1530 1528 1528 1531 1534 1537 1540 1542 1544 1547 1549 1552 1554 1558 1560 1561 1562 1563 1564 1566 1567 1568 1569 1568 1571 1573 1576 1577 1579 1581 1583 1583 1582 1582 1581 1581 1581
1524 1523 1522 1518 1517 1515 1524 1525 1525 1524 1526 1528 1529 1529 1530 1532 1535 1538 1540 1542 1543 1545 1548 1550 1553 1556 1558 1559 1561 1563 1564 1564 1565 1566 1566 1566 1568 1569 1573 1575 1577 1579 1581 1582 1582 1582 1582 1581 1580
1517 1520 1519 1516 1519 1520 1524 1523 1525 1525 1525 1526 1527 1527 1528 1530 1533 1535 1537 1540 1543 1545 1547 1549 1552 1554 1556 1558 1560 1560 1561 1561 1562 1562 1563 1564 1565 1567 1569 1571 1573 1577 1579 1580 1581 1582 1581 1580 1579
1521 1513 1514 1514 1516 1527 1526 1537 1527 1526 1525 1523 1525 1527 1529 1530 1532 1535 1537 1540 1542 1545 1547 1549 1551 1553 1555 1556 1557 1558 1559 1559 1559 1559 1559 1559 1561 1563 1565 1567 1570 1573 1576 1578 1579 1580 1580 1579 1578
1516 1511 1512 1514 1519 1522 1527 1527 1523 1525 1522 1521 1521 1524 1526 1529 1532 1535 1537 1540 1542 1544 1547 1549 1551 1552 1554 1555 1556 1557 1556 1556 1556 1556 1556 1557 1558 1560 1561 1563 1566 1569 1573 1575 1576 1577 1577 1577 1577
1510 1513 1515 1518 1518 1530 1534 1532 1523 1520 1519 1519 1520 1522 1524 1527 1530 1534 1537 1539 1543 1544 1545 1547 1548 1550 1552 1553 1553 1554 1553 1554 1553 1553 1554 1554 1555 1557 1558 1559 1562 1565 1569 1571 1573 1574 1575 1576 1576
1511 1511 1524 1530 1529 1531 1533 1535 1518 1516 1517 1519 1519 1520 1523 1526 1530 1533 1535 1539 1542 1542 1542 1543 1544 1546 1548 1550 1551 1551 1551 1550 1550 1550 1551 1552 1553 1554 1554 1556 1559 1561 1565 1568 1570 1570 1572 1573 1573
1507 1503 1516 1541 1535 1530 1533 1530 1518 1514 1518 1519 1518 1518 1521 1525 1528 1531 1534 1539 1540 1539 1541 1540 1539 1541 1544 1547 1548 1549 1549 1549 1548 1548 1548 1549 1550 1551 1552 1553 1555 1558 1561 1564 1566 1567 1568 1569 1570
1507 1510 1506 1523 1538 1531 1528 1523 1516 1516 1516 1517 1516 1516 1520 1523 1526 1528 1532 1536 1537 1536 1539 1538 1540 1541 1543 1544 1546 1548 1548 1548 1547 1546 1546 1546 1547 1548 1550 1551 1552 1554 1557 1560 1562 1564 1565 1565 1566
1497 1502 1512 1514 1534 1537 1525 1528 1514 1515 1515 1517 1516 1513 1517 1522 1525 1527 1530 1533 1535 1534 1536 1537 1538 1539 1541 1542 1545 1546 1546 1545 1544 1544 1544 1544 1544 1544 1546 1548 1548 1550 1553 1556 1558 1560 1561 1562 1563
1505 1503 1509 1508 1516 1520 1525 1508 1498 1501 1505 1513 1513 1515 1517 1520 1523 1527 1528 1532 1533 1533 1533 1533 1535 1536 1538 1540 1542 1542 1540 1537 1538 1540 1542 1541 1540 1541 1541 1543 1544 1545 1547 1550 1553 1555 1557 1558 1559
1494 1490 1491 1503 1520 1521 1519 1506 1502 1500 1504 1508 1516 1514 1518 1520 1525 1528 1528 1531 1532 1534 1535 1536 1537 1538 1539 1540 1539 1539 1537 1536 1535 1537 1539 1539 1538 1538 1538 1538 1539 1540 1542 1544 1545 1548 1551 1552 1554